Cleveland, OH

8:43 AM EDT on August 24, 2016 (GMT -0400)
Burke Lakefront

Weather History for KBKL - May, 2013

Change the Weather History Date:

Friday, May 10, 2013

  Actual Average Record
Temperature  
Mean Temperature 60 °F -  
Max Temperature 73 °F 65 °F 86 °F (2004)
Min Temperature 48 °F 49 °F 41 °F (1997)
Degree Days  
Heating Degree Days 4    
Growing Degree Days 10 (Base 50)    
Moisture  
Dew Point 54 °F    
Average Humidity 79    
Maximum Humidity 100    
Minimum Humidity 35    
Precipitation  
Precipitation 0.78 in - - ()
Sea Level Pressure  
Sea Level Pressure 29.82 in    
Wind  
Wind Speed 11 mph (SSW)    
Max Wind Speed 17 mph    
Max Gust Speed 36 mph    
Visibility 7 miles    
Events Rain , Thunderstorm    
Averages and records for this station are not official NWS values.
T = Trace of Precipitation, MM = Missing Value Source: NWS Daily Summary

Daily Weather History Graph

Daily Weather History Graph

Search for Another Location

Airport or City:

Trip Planner

Search our weather history database for the weather conditions in past years. The results will help you decide how hot, cold, wet, or windy it might be!

Date:

Astronomy

May. 10, 2013 Rise Set
Actual Time 6:12 AM EDT 8:34 PM EDT
Civil Twilight 5:41 AM EDT 9:05 PM EDT
Nautical Twilight 5:02 AM EDT 9:44 PM EDT
Astronomical Twilight 4:20 AM EDT 10:27 PM EDT
Moon 6:35 AM EDT (5/10) 9:22 PM EDT (5/10)
Length of Visible Light 15h 24m
Length of Day
14h 21m
New Moon, 0% of the Moon is Illuminated
May 10
New Moon
May 18
First Quarter
May 25
Full
May 31
Last Quarter
Jun 8
New

Hourly Weather History & Observations

Time (EDT) Temp. Dew Point Humidity Pressure Visibility Wind Dir Wind Speed Gust Speed Precip Events Conditions
12:53 AM 68.0 °F 39.0 °F 35% 29.93 in 10.0 mi South 10.4 mph - N/A   Mostly Cloudy
1:53 AM 68.0 °F 39.9 °F 36% 29.91 in 10.0 mi SSE 11.5 mph - N/A   Overcast
2:53 AM 66.9 °F 42.1 °F 40% 29.91 in 10.0 mi SSE 6.9 mph - N/A   Mostly Cloudy
3:53 AM 66.0 °F 46.9 °F 50% 29.88 in 10.0 mi SSE 5.8 mph - N/A   Overcast
4:53 AM 66.0 °F 51.1 °F 59% 29.86 in 10.0 mi SE 8.1 mph - N/A   Overcast
5:53 AM 61.0 °F 57.9 °F 90% 29.87 in 5.0 mi South 6.9 mph - 0.08 in Rain Light Rain
7:53 AM 62.1 °F 57.9 °F 86% 29.84 in 10.0 mi South 15.0 mph 21.9 mph N/A   Clear
8:53 AM 64.9 °F 59.0 °F 81% 29.85 in 10.0 mi South 16.1 mph 24.2 mph N/A   Mostly Cloudy
9:53 AM 68.0 °F 59.0 °F 73% 29.84 in 10.0 mi SSW 13.8 mph 23.0 mph N/A   Overcast
10:53 AM 70.0 °F 60.1 °F 71% 29.82 in 10.0 mi SSW 15.0 mph 26.5 mph N/A   Partly Cloudy
11:53 AM 72.0 °F 60.1 °F 66% 29.81 in 10.0 mi South 17.3 mph 21.9 mph N/A   Partly Cloudy
1:53 PM 73.9 °F 61.0 °F 64% 29.79 in 10.0 mi SSW 13.8 mph 23.0 mph N/A   Scattered Clouds
2:53 PM 72.0 °F 61.0 °F 68% 29.77 in 9.0 mi SSW 15.0 mph 21.9 mph 0.01 in Rain , Thunderstorm Light Thunderstorms and Rain
3:53 PM 66.9 °F 62.1 °F 84% 29.77 in 3.0 mi WSW 6.9 mph - 0.27 in Thunderstorm Unknown
4:45 PM 62.6 °F 59.0 °F 88% 29.81 in 2.5 mi SW 15.0 mph 35.7 mph 0.13 in Rain , Thunderstorm Heavy Thunderstorms and Rain
4:53 PM 63.0 °F 59.0 °F 87% 29.80 in 4.0 mi SSW 10.4 mph 20.7 mph 0.14 in Rain , Thunderstorm Light Thunderstorms and Rain
5:53 PM 63.0 °F 59.0 °F 87% 29.77 in 10.0 mi South 12.7 mph 20.7 mph 0.12 in Rain , Thunderstorm Light Thunderstorms and Rain
6:53 PM 63.0 °F 60.1 °F 90% 29.76 in 9.0 mi South 9.2 mph - 0.02 in Rain , Thunderstorm Light Thunderstorms and Rain
7:53 PM 63.0 °F 59.0 °F 87% 29.76 in 10.0 mi South 11.5 mph - 0.02 in Thunderstorm Thunderstorm
8:53 PM 63.0 °F 59.0 °F 87% 29.74 in 10.0 mi South 10.4 mph - N/A   Overcast
9:53 PM 63.0 °F 59.0 °F 87% 29.75 in 10.0 mi SSW 15.0 mph 20.7 mph N/A   Mostly Cloudy
10:11 PM 57.2 °F 55.4 °F 94% 29.77 in 10.0 mi NW 13.8 mph 18.4 mph N/A   Overcast
10:34 PM 53.6 °F 51.8 °F 94% 29.79 in 5.0 mi North 12.7 mph 19.6 mph N/A   Overcast
10:53 PM 51.1 °F 50.0 °F 96% 29.81 in 5.0 mi North 15.0 mph - 0.00 in Rain Light Rain
11:07 PM 50.0 °F 48.2 °F 94% 29.80 in 4.0 mi North 10.4 mph - 0.01 in Rain Light Rain
11:32 PM 50.0 °F 48.2 °F 94% 29.81 in 3.0 mi NNE 11.5 mph - 0.03 in Rain Rain
11:41 PM 48.2 °F 48.2 °F 100% 29.81 in 2.5 mi North 10.4 mph - 0.06 in Rain Heavy Rain
11:49 PM 48.2 °F 48.2 °F 100% 29.81 in 1.8 mi North 8.1 mph - 0.12 in Rain Heavy Rain
11:53 PM 48.9 °F 48.0 °F 97% 29.81 in 2.0 mi NNE 10.4 mph - 0.12 in Rain Rain